RH
86 89 85 86 87 88 90 85 78 84 96 96 83 79 82 84 87 98 85 66 57 49 44 54 76 64 48 40 42 35 56 63 43 36 42 58 64 64 62 77 82 76 80 84 94
86 82 84 83 84 86 88 90 78 80 92 96 96 79 89 87 87 91 79 78 66 58 46 71 81 61 57 47 44 43 50 40 46 56 53 61 64 70 74 78 88 88 80 89 94
87 86 84 85 85 86 84 91 81 88 93 97 95 89 83 88 84 68 68 83 70 61 44 66 65 54 50 46 43 43 42 51 58 63 60 67 67 64 76 86 81 87 86 86 92
87 89 86 88 81 82 87 88 89 90 93 97 94 88 80 86 86 56 49 64 76 61 49 64 62 59 51 52 39 52 58 54 64 65 62 68 64 78 79 83 72 75 79 84 88
88 87 89 88 91 90 86 87 92 91 93 96 93 91 89 86 74 49 58 59 76 68 65 72 61 56 55 42 42 57 60 61 65 67 68 64 75 84 85 72 70 74 76 80 83
91 89 87 87 90 89 90 90 91 92 93 93 92 94 88 96 48 50 52 64 79 72 72 72 59 45 48 40 44 52 61 68 63 64 64 73 80 71 77 68 68 71 77 76 81
88 92 93 92 92 89 86 88 89 87 97 94 98 96 87 84 56 55 53 66 75 67 71 65 58 48 39 48 49 59 73 70 68 66 71 68 86 86 73 67 72 72 73 76 79
92 94 96 92 91 88 93 95 94 97 99 99 93 96 87 61 61 57 49 67 73 62 64 52 50 41 39 45 48 60 66 78 71 69 71 70 77 84 71 72 75 71 70 75 76
96 98 96 92 88 91 81 81 92 95 98 91 93 89 89 61 57 47 51 68 72 62 52 50 42 44 42 59 65 60 79 71 80 66 74 78 74 79 71 70 76 71 68 71 68
100 98 96 94 94 81 82 84 82 87 87 94 91 94 72 54 46 50 58 58 57 54 54 56 53 60 57 63 79 73 68 60 82 73 75 89 86 83 74 70 74 70 67 66 68
100 98 94 93 77 76 70 77 84 85 88 65 65 72 48 52 52 56 56 57 55 60 82 60 74 78 66 57 47 47 55 58 55 66 80 86 84 84 77 71 73 70 69 67 65
100 97 94 80 72 76 79 81 86 90 90 62 70 60 48 53 62 61 56 68 67 84 70 71 82 62 51 51 53 52 50 55 60 63 69 83 85 76 78 77 72 74 68 65 63
97 76 72 74 72 67 71 85 79 74 82 64 60 64 56 53 61 71 60 68 73 79 73 75 64 55 50 52 54 52 54 62 58 58 56 59 72 85 77 72 71 70 65 61 60
89 57 52 53 70 67 70 73 70 73 85 69 68 58 55 55 67 51 53 64 59 77 68 67 51 54 58 52 46 53 41 45 67 70 86 62 89 88 81 84 78 73 69 67 60
75 66 61 75 78 72 73 67 75 78 92 64 65 50 55 62 55 61 51 64 62 54 69 76 52 54 53 46 43 48 38 52 66 66 63 74 85 72 79 91 84 78 70 67 60
71 68 68 74 76 77 67 73 81 90 90 63 61 71 69 68 57 65 72 61 49 61 59 58 41 41 42 40 40 52 59 65 61 67 92 75 79 76 89 69 67 69 70 67 60
38 61 69 77 78 74 67 83 85 90 33 64 63 62 66 67 69 73 90 84 85 93 88 62 58 40 34 46 43 51 64 95 97 97 88 66 83 53 58 56 54 65 69 67 57
35 57 67 71 75 70 82 90 92 54 58 46 49 52 65 55 62 74 85 92 80 71 97 87 87 55 42 44 48 55 54 79 78 71 70 58 80 71 52 49 50 57 64 65 54
44 70 79 62 73 75 92 92 79 61 56 63 59 65 63 57 60 76 81 89 79 78 100 99 90 55 39 36 39 59 72 47 59 49 64 68 59 57 51 48 57 69 72 63 53
53 70 69 69 68 88 91 80 56 52 56 55 70 52 64 81 87 99 99 79 85 78 73 98 99 61 48 38 38 46 46 72 70 93 77 68 74 61 60 60 73 78 73 59 51
69 78 65 67 84 94 97 79 47 50 48 58 62 68 65 65 86 97 85 75 79 86 86 100 100 84 58 61 67 54 59 57 59 71 65 66 53 54 52 57 72 74 62 55 50
64 69 60 71 91 94 82 59 55 50 49 56 49 56 62 61 80 78 84 71 77 88 99 94 100 97 98 73 58 51 56 70 75 73 64 52 51 48 48 59 67 64 52 48 41
72 48 56 66 93 77 61 52 52 54 51 51 55 51 55 63 80 96 91 79 78 90 99 99 99 97 90 96 98 98 85 89 77 78 68 77 65 60 66 68 63 59 50 45 43
65 47 59 76 69 63 53 49 39 50 54 53 54 51 58 65 63 80 84 91 85 90 81 97 99 95 92 76 96 93 98 99 99 98 77 76 76 80 75 74 67 58 56 58 59
58 41 44 26 37 36 31 44 47 43 54 46 50 53 58 78 79 81 60 58 90 79 89 98 92 98 89 88 90 97 97 86 97 95 98 72 74 77 76 78 74 67 65 67 72
66 52 55 45 28 28 30 26 28 31 40 43 49 48 45 50 55 72 72 79 77 89 79 93 96 98 97 77 84 96 95 98 95 91 98 98 96 96 75 76 76 73 70 75 73
60 58 65 43 31 30 31 36 46 42 38 39 46 46 49 52 53 56 66 74 77 86 96 98 92 98 98 89 96 99 78 76 83 95 97 98 86 86 93 86 80 78 73 75 78
Wind_Speed
17 18 16 16 15 14 13 12 11 12 12 13 13 12 12 10 7 11 9 9 8 11 8 9 10 12 7 3 3 3 4 6 9 7 3 3 5 5 7 8 5 4 5 6 5
18 17 17 17 16 15 14 12 11 12 13 12 12 10 11 6 6 13 12 14 12 6 10 9 7 8 2 4 2 3 6 8 5 4 4 3 7 6 4 4 5 8 11 9 9
19 18 18 18 17 16 14 12 10 12 12 12 12 10 8 3 2 6 11 21 11 14 12 4 14 5 4 4 3 3 4 5 2 5 7 3 4 4 8 4 2 6 10 9 9
20 19 19 17 17 17 16 13 12 12 12 11 9 10 6 3 1 2 2 8 17 16 12 5 4 5 3 6 5 5 4 3 1 5 5 3 5 6 6 5 7 12 13 10 10
20 20 19 18 17 16 16 14 13 11 10 8 6 7 2 2 5 2 7 3 20 16 15 7 7 7 4 7 8 5 4 6 7 11 8 9 5 7 6 8 10 12 12 9 9
21 20 19 18 17 16 15 15 12 11 8 7 4 1 0 3 2 5 7 3 17 20 12 8 5 6 6 1 2 6 7 9 4 5 4 5 3 2 6 10 10 10 8 8 8
22 20 19 18 16 15 15 15 12 8 8 7 4 2 2 8 2 10 9 6 14 21 3 15 13 3 2 5 6 10 7 7 3 4 4 11 2 5 12 12 11 9 8 7 7
22 21 19 17 16 15 14 10 9 9 9 6 2 3 4 6 6 7 5 5 13 16 16 12 10 3 3 7 4 4 5 4 5 8 6 3 4 2 11 13 12 11 9 7 7
23 22 20 17 14 15 9 7 6 5 3 3 3 1 6 3 3 7 8 8 14 12 16 13 5 5 2 6 3 2 3 3 3 10 6 4 3 7 11 12 11 10 10 8 7
24 24 21 16 14 10 7 4 5 5 4 5 1 1 5 0 0 2 3 12 3 6 3 3 2 4 3 4 8 6 5 5 7 11 6 8 5 8 11 11 10 9 9 9 9
24 23 19 16 10 6 7 1 1 0 5 5 3 4 2 2 1 1 6 5 5 3 5 4 4 7 7 6 5 6 5 8 0 9 6 13 6 13 14 12 11 11 10 10 10
23 20 17 11 7 6 7 3 5 3 7 10 15 10 2 2 2 5 7 5 6 8 3 1 9 6 8 6 8 9 6 2 3 9 6 7 12 9 16 14 16 15 14 12 11
21 16 10 8 6 5 6 4 5 8 3 6 6 5 3 5 3 8 7 3 5 6 10 7 6 11 10 9 14 14 13 6 4 3 1 3 5 6 9 3 10 11 12 13 15
20 13 8 8 2 5 3 6 7 5 3 2 2 3 7 3 5 11 13 6 5 12 6 11 12 15 18 14 12 14 7 7 12 10 6 9 5 6 7 13 15 15 16 17 17
19 11 7 7 5 3 5 8 5 1 4 4 2 1 3 4 3 2 7 2 4 6 7 7 11 10 17 21 13 11 8 8 10 10 4 4 2 5 11 7 16 22 20 16 15
20 10 6 2 4 4 9 6 1 1 4 2 4 3 3 4 3 2 1 2 3 4 7 8 7 8 11 8 16 5 4 4 4 3 5 7 7 6 7 12 8 13 17 18 17
18 8 6 5 2 9 7 1 3 2 2 4 2 5 7 5 5 5 5 7 5 3 6 4 13 5 5 6 6 5 6 3 4 5 7 11 8 18 11 13 12 23 20 18 18
14 7 5 7 6 6 3 3 2 3 3 1 2 3 5 5 7 8 3 4 9 8 3 8 9 14 9 12 11 13 13 6 9 9 5 9 9 6 3 4 2 15 19 19 19
10 4 4 3 2 1 3 1 5 0 2 3 6 4 4 8 2 5 4 4 6 14 6 4 7 5 14 15 16 7 14 15 5 4 2 5 5 3 2 1 4 17 20 19 18
10 4 5 5 3 2 3 4 3 1 2 3 3 3 3 2 1 1 3 3 4 9 14 5 6 5 7 16 16 14 8 9 10 9 15 6 6 5 6 8 11 18 19 17 15
3 1 2 3 3 2 3 5 2 3 3 1 2 3 2 2 6 5 6 3 0 1 6 3 6 3 4 11 22 14 12 8 8 9 10 5 7 5 9 15 19 17 17 19 18
4 1 5 6 1 3 3 4 4 1 1 4 3 5 6 4 4 5 7 6 3 2 4 3 3 4 6 3 3 21 19 20 8 15 13 10 12 1 3 9 16 17 17 17 18
3 3 4 4 2 3 5 3 4 4 2 2 3 1 4 1 3 2 3 2 3 2 1 2 2 4 4 0 0 2 7 11 18 0 16 10 10 4 6 13 16 20 18 17 18
2 3 2 1 2 3 3 4 2 0 2 3 3 3 3 3 3 4 2 3 4 3 0 2 3 5 8 9 1 10 8 4 10 6 14 19 4 4 8 15 17 18 20 18 17
0 2 1 2 2 3 3 3 3 3 3 3 2 3 4 4 3 4 3 5 1 2 1 1 6 4 10 11 8 11 12 11 11 11 8 15 15 11 17 17 16 17 17 20 17
3 3 5 3 3 2 2 3 2 3 3 2 2 5 3 2 1 4 2 1 5 1 3 4 4 3 6 10 11 12 9 10 13 13 13 15 10 4 14 15 17 18 19 18 18
8 5 2 5 3 0 2 2 3 3 3 2 4 3 3 3 4 4 5 6 5 2 3 4 3 2 5 5 4 6 14 16 9 6 4 10 6 12 15 18 22 23 21 20 18
Wind_Direction
360 354 350 349 347 344 345 341 328 330 335 340 324 313 325 319 261 211 230 216 209 251 197 182 173 164 147 126 126 245 122 266 273 274 220 201 102 45 57 90 61 34 80 108 105
358 354 347 345 341 341 344 337 325 318 325 329 329 313 320 303 235 230 231 235 238 200 221 192 179 158 127 130 164 137 180 194 140 290 256 62 88 116 101 112 71 92 87 95 100
353 350 346 344 339 336 333 334 320 316 319 323 326 317 306 290 252 251 263 224 224 223 223 200 179 170 168 133 175 182 168 132 164 287 112 73 72 34 128 68 14 151 122 109 97
349 347 345 342 336 332 329 324 317 319 316 319 325 326 323 155 259 137 113 223 207 207 217 226 218 179 190 164 183 113 61 100 328 338 87 78 90 68 40 93 93 111 114 109 93
347 344 342 339 333 329 324 320 319 313 313 321 319 337 94 186 255 58 4 280 191 195 200 202 206 188 201 188 172 113 139 88 95 76 70 77 55 129 108 115 108 107 108 107 102
347 344 340 337 335 331 326 319 315 311 308 316 323 12 329 237 133 24 356 299 184 190 208 207 222 180 218 112 160 129 112 121 90 96 93 102 124 40 170 146 132 127 118 110 108
346 343 340 337 335 332 326 317 310 302 304 280 277 204 263 253 155 326 330 225 193 192 201 223 249 277 209 112 140 129 109 116 125 161 127 135 119 225 148 162 148 148 143 132 124
347 345 341 338 335 334 327 322 308 292 302 284 215 189 255 278 292 280 292 174 197 205 214 243 261 285 170 139 97 90 113 129 176 174 171 220 236 99 157 162 165 164 160 158 145
347 344 338 335 334 331 337 339 332 337 276 135 143 203 280 289 244 301 224 168 183 212 231 273 277 166 99 114 83 225 159 160 140 192 148 206 276 152 176 181 175 177 171 167 155
348 346 342 334 330 339 356 69 100 98 114 154 114 229 269 183 26 150 218 170 168 161 279 253 178 133 147 138 200 175 209 179 186 191 169 175 242 158 186 193 188 183 179 185 177
349 349 346 342 342 11 30 27 39 60 232 223 217 241 97 47 224 211 165 149 142 125 180 220 176 197 188 198 167 188 205 217 358 169 139 200 203 189 184 194 190 187 190 189 186
349 350 349 4 33 39 18 62 68 308 298 249 248 252 183 140 232 223 187 141 180 193 203 180 224 208 193 213 228 242 228 196 356 167 186 181 221 180 185 208 194 184 189 188 175
348 359 17 46 34 35 41 56 355 8 265 289 205 210 190 145 262 199 170 175 169 178 207 189 222 210 209 212 217 228 235 178 166 149 259 171 248 175 218 230 195 196 191 185 182
345 3 3 330 5 347 52 340 337 359 306 242 169 246 189 131 267 192 198 175 191 197 199 234 245 205 222 228 213 232 209 186 145 151 210 168 260 235 188 197 197 197 194 190 181
340 346 353 19 324 14 321 312 334 205 351 170 133 286 140 175 252 230 174 288 223 219 170 221 203 206 216 225 226 238 202 158 167 185 146 181 284 253 131 196 210 207 198 190 178
337 326 330 25 306 317 310 306 322 163 260 149 130 186 162 230 289 43 173 71 275 250 274 226 251 212 213 205 220 177 110 53 124 94 250 186 191 215 184 211 225 201 194 180 166
335 304 285 286 242 307 314 23 47 162 201 161 208 175 205 220 224 193 193 191 199 204 243 305 247 238 182 202 201 147 135 203 218 202 243 181 202 242 210 216 208 195 185 167 155
332 295 268 257 262 308 338 69 202 246 36 9 45 276 226 220 230 198 179 230 223 225 269 222 242 212 197 203 203 207 188 195 219 220 223 180 232 240 314 352 221 175 165 153 151
338 307 262 264 247 255 77 178 227 355 6 15 318 222 252 243 173 44 221 234 229 203 220 240 250 284 211 209 192 188 209 208 271 199 183 218 287 304 311 250 129 143 149 152 147
331 287 239 198 190 133 86 248 280 78 70 27 196 296 329 49 76 85 202 240 261 208 211 213 264 233 242 206 215 206 159 195 220 222 240 228 235 225 227 198 152 151 152 145 140
318 329 183 176 162 72 197 233 316 109 109 238 296 309 288 284 177 202 208 274 20 320 58 324 239 256 223 197 206 208 219 221 190 211 227 241 245 207 209 178 170 154 147 143 139
344 315 172 164 106 223 206 219 190 270 87 268 262 241 235 245 246 239 216 206 69 144 304 188 300 294 246 290 333 222 219 208 206 212 228 240 245 354 232 168 145 139 139 136 134
322 265 184 179 220 264 302 270 215 184 189 289 293 290 39 260 329 343 344 83 70 358 251 22 292 306 292 260 36 196 245 235 250 177 223 206 244 348 110 129 142 140 141 140 136
334 318 315 148 224 217 279 274 264 121 211 207 282 342 307 278 232 263 253 174 151 167 151 158 225 224 263 275 168 288 206 255 281 241 223 226 221 254 162 151 152 149 143 143 141
10 273 147 289 303 335 1 282 289 311 238 152 288 237 308 265 326 282 348 359 341 132 79 251 265 235 261 279 278 267 254 240 227 264 253 254 227 192 184 161 152 143 143 142 143
13 359 350 291 305 321 255 265 264 303 22 277 290 342 13 266 253 277 19 190 231 292 238 163 270 290 278 269 257 250 261 248 245 256 265 258 278 262 142 136 149 153 153 147 148
356 337 83 297 316 337 276 336 38 10 327 73 45 357 317 337 284 232 214 238 230 194 234 175 198 29 266 278 288 259 230 224 230 227 220 250 232 148 154 167 164 158 159 152 148